Weather History for PADU - June, 2013

Change the Weather History Date:

Friday, June 28, 2013

  Actual Average Record
Temperature  
Mean Temperature 50 °F -  
Max Temperature 55 °F 55 °F 73 °F (1985)
Min Temperature 44 °F 43 °F 38 °F (1986)
Degree Days  
Heating Degree Days 16    
Moisture  
Dew Point 42 °F    
Average Humidity 80    
Maximum Humidity 93    
Minimum Humidity 58    
Precipitation  
Precipitation 0.00 in - - ()
Sea Level Pressure  
Sea Level Pressure 30.00 in    
Wind  
Wind Speed 6 mph (SSE)    
Max Wind Speed 23 mph    
Max Gust Speed 28 mph    
Visibility 9 miles    
Events Rain    
Averages and records for this station are not official NWS values.
T = Trace of Precipitation, MM = Missing Value Source: NWS Daily Summary

Daily Weather History Graph

Daily Weather History Graph

Search for Another Location

Airport or City:

Trip Planner

Search our weather history database for the weather conditions in past years. The results will help you decide how hot, cold, wet, or windy it might be!

Date:

Astronomy

Jun. 28, 2013 Rise Set
Actual Time 6:37 AM AKDT 11:41 PM AKDT
Civil Twilight 5:43 AM AKDT 12:35 AM AKDT
Nautical Twilight 4:02 AM AKDT 2:15 AM AKDT
Astronomical Twilight Sun does not rise Sun does not rise
Moon 1:47 AM AKDT (6/28) 2:02 PM AKDT (6/28)
Length of Visible Light 18h 51m
Length of Day
17h 04m
Waning Gibbous, 65% of the Moon is Illuminated
Jun 28
Waning Gibbous
Jun 29
Last Quarter
Jul 7
New
Jul 15
First Quarter
Jul 22
Full

Hourly Weather History & Observations

Time (AKDT) Temp. Windchill Dew Point Humidity Pressure Visibility Wind Dir Wind Speed Gust Speed Precip Events Conditions
12:04 AM 44.6 °F - 42.8 °F 93% 30.07 in 1.0 mi Calm Calm - N/A   Mostly Cloudy
12:10 AM 44.6 °F - 42.8 °F 93% 30.07 in 1.5 mi Calm Calm - N/A Rain Light Rain
12:13 AM 44.6 °F 43.1 °F 42.8 °F 93% 30.07 in 3.0 mi SE 3.5 mph - N/A Rain Light Rain
12:25 AM 44.6 °F - 42.8 °F 93% 30.07 in 10.0 mi Calm Calm - N/A   Partly Cloudy
12:56 AM 46.0 °F - 42.1 °F 86% 30.08 in 10.0 mi Calm Calm - N/A   Clear
1:17 AM 44.6 °F - 42.8 °F 93% 30.06 in 3.0 mi Calm Calm - N/A   Partly Cloudy
1:19 AM 44.6 °F - 42.8 °F 93% 30.06 in 1.8 mi Calm Calm - N/A   Partly Cloudy
1:30 AM 44.6 °F - 42.8 °F 93% 30.06 in 3.0 mi Calm Calm - N/A   Scattered Clouds
1:43 AM 44.6 °F 42.2 °F 42.8 °F 93% 30.06 in 10.0 mi South 4.6 mph - N/A   Partly Cloudy
1:56 AM 46.0 °F - 42.1 °F 86% 30.08 in 10.0 mi Calm Calm - N/A   Clear
2:56 AM 45.0 °F 43.5 °F 43.0 °F 93% 30.07 in 10.0 mi NW 3.5 mph - N/A   Clear
3:56 AM 45.0 °F 43.5 °F 43.0 °F 93% 30.07 in 10.0 mi WSW 3.5 mph - N/A   Clear
4:56 AM 45.0 °F 40.6 °F 41.0 °F 86% 30.06 in 10.0 mi SSE 8.1 mph - N/A   Clear
5:10 AM 44.6 °F 42.2 °F 41.0 °F 87% 30.04 in 10.0 mi Variable 4.6 mph - N/A   Mostly Cloudy
5:44 AM 44.6 °F 40.2 °F 41.0 °F 87% 30.03 in 10.0 mi South 8.1 mph - N/A   Scattered Clouds
5:56 AM 45.0 °F 40.1 °F 41.0 °F 86% 30.05 in 10.0 mi South 9.2 mph - N/A   Scattered Clouds
5:57 AM 46.4 °F 42.4 °F 41.0 °F 81% 30.03 in 10.0 mi South 8.1 mph - N/A   Scattered Clouds
6:56 AM 46.0 °F 40.2 °F 39.9 °F 79% 30.04 in 10.0 mi SSE 12.7 mph - N/A   Scattered Clouds
6:58 AM 46.4 °F 40.7 °F 41.0 °F 81% 30.02 in 10.0 mi SSE 12.7 mph - N/A   Scattered Clouds
7:56 AM 46.0 °F 40.2 °F 41.0 °F 83% 30.03 in 10.0 mi South 12.7 mph 19.6 mph N/A   Scattered Clouds
9:56 AM 46.0 °F 38.8 °F 41.0 °F 83% 30.02 in 10.0 mi SE 18.4 mph - N/A   Scattered Clouds
10:56 AM 48.0 °F - 41.0 °F 77% 30.02 in 10.0 mi SSE 17.3 mph - N/A   Mostly Cloudy
11:56 AM 48.0 °F - 41.0 °F 77% 30.01 in 10.0 mi East 9.2 mph - N/A   Overcast
12:07 PM 48.2 °F - 41.0 °F 76% 29.99 in 10.0 mi East 10.4 mph - N/A   Mostly Cloudy
12:51 PM 50.0 °F - 41.0 °F 71% 29.99 in 10.0 mi ESE 8.1 mph - N/A   Mostly Cloudy
12:56 PM 50.0 °F - 42.1 °F 74% 30.01 in 10.0 mi ESE 11.5 mph - N/A   Mostly Cloudy
1:20 PM 51.8 °F - 42.8 °F 71% 29.98 in 10.0 mi ESE 15.0 mph - N/A   Mostly Cloudy
1:56 PM 53.1 °F - 42.1 °F 66% 29.99 in 10.0 mi ESE 11.5 mph 18.4 mph N/A   Mostly Cloudy
2:56 PM 55.0 °F - 43.0 °F 64% 29.97 in 10.0 mi SE 12.7 mph 19.6 mph N/A   Scattered Clouds
3:56 PM 55.9 °F - 42.1 °F 60% 29.95 in 10.0 mi SE 15.0 mph 23.0 mph N/A   Scattered Clouds
4:56 PM 55.0 °F - 41.0 °F 59% 29.92 in 9.0 mi South 20.7 mph 24.2 mph N/A   Scattered Clouds
5:14 PM 55.4 °F - 41.0 °F 58% 29.90 in 10.0 mi SSE 23.0 mph 27.6 mph N/A   Scattered Clouds
5:56 PM 54.0 °F - 42.1 °F 64% 29.93 in 10.0 mi SSE 17.3 mph 21.9 mph N/A   Scattered Clouds
6:08 PM 53.6 °F - 42.8 °F 67% 29.91 in 10.0 mi SSE 13.8 mph - N/A   Mostly Cloudy
6:20 PM 53.6 °F - 44.6 °F 72% 29.90 in 10.0 mi SSE 15.0 mph 23.0 mph N/A   Scattered Clouds
6:56 PM 50.0 °F - 44.1 °F 80% 29.91 in 10.0 mi SE 16.1 mph 24.2 mph N/A   Mostly Cloudy
6:59 PM 50.0 °F - 44.6 °F 82% 29.90 in 10.0 mi SE 17.3 mph 24.2 mph N/A   Overcast
7:56 PM 51.1 °F - 45.0 °F 80% 29.90 in 10.0 mi SSE 13.8 mph 21.9 mph N/A   Mostly Cloudy
8:56 PM 51.1 °F - 45.0 °F 80% 29.89 in 10.0 mi SE 15.0 mph 23.0 mph N/A   Mostly Cloudy
9:56 PM 50.0 °F - 45.0 °F 83% 29.89 in 10.0 mi SSE 12.7 mph 19.6 mph N/A   Overcast
10:56 PM 50.0 °F - 44.1 °F 80% 29.88 in 10.0 mi South 15.0 mph 26.5 mph N/A   Overcast
11:56 PM 50.0 °F - 44.1 °F 80% 29.88 in 10.0 mi Variable 6.9 mph 23.0 mph N/A   Overcast